Montross, Virginia, United States (22520)
Lat: 38.09N, Lon: 76.83W
Wx Zone: VAZ075
Local Info
Past Weather Observations for Friday, February 27, 2015

NOTE: This archive is for the closest National Weather Service station to Montross. Information may differ from the station used for current weather conditions.

Click here for Long-term Archive

Time Weather Temperature Dewpoint Humidity Pressure Winds Precip Visibility
23:52
Clear
25°F / -4°C 9°F / -13°C 50% 30.66 in
(1038 mb)
NNW 12.7 mph
(NNW 20 kph)
- 10SM
22:52
Clear
25°F / -4°C 14°F / -10°C 63% 30.66 in
(1038 mb)
NNW 6.9 mph
(NNW 11 kph)
- 10SM
21:52
Clear
27°F / -3°C 16°F / -9°C 64% 30.6 in
(1036 mb)
N 8.1 mph
(N 13 kph)
- 10SM
20:52
Clear
27°F / -3°C 14°F / -10°C 59% 30.6 in
(1036 mb)
NNE 9.2 mph
(NNE 15 kph)
- 10SM
19:52
Partly Cloudy
25°F / -4°C 12°F / -11°C 59% 30.57 in
(1035 mb)
NE 5.8 mph
(NE 9 kph)
- 10SM
18:52
Partly Cloudy
27°F / -3°C 16°F / -9°C 64% 30.54 in
(1034 mb)
NE 5.8 mph
(NE 9 kph)
- 10SM
17:52
Partly Cloudy
28°F / -2°C 18°F / -8°C 64% 30.51 in
(1033 mb)
N 6.9 mph
(N 11 kph)
- 10SM
16:52
Partly Cloudy
28°F / -2°C 18°F / -8°C 64% 30.51 in
(1033 mb)
NE 9.2 mph
(NE 15 kph)
- 10SM
15:52
Partly Cloudy
30°F / -1°C 19°F / -7°C 64% 30.48 in
(1032 mb)
NE 9.2 mph
(NE 15 kph)
- 9SM
14:52
Mostly Cloudy
28°F / -2°C 21°F / -6°C 74% 30.45 in
(1031 mb)
NE 12.7 mph
(NE 20 kph)
0.00 in
(0.00 mm)
7SM
13:52
Mostly Cloudy
Light Snow
28°F / -2°C 21°F / -6°C 74% 30.42 in
(1030 mb)
NNE 11.5 mph
(NNE 19 kph)
0.00 in
(0.00 mm)
4SM
13:15
Overcast
Light Snow
30°F / -1°C 23°F / -5°C 75% 30.42 in
(1030 mb)
NE 12.7 mph
(NE 20 kph)
0.00 in
(0.00 mm)
3SM
12:52
Overcast
Light Snow
30°F / -1°C 23°F / -5°C 75% 30.42 in
(1030 mb)
NNE 10.4 mph
(NNE 17 kph)
0.00 in
(0.00 mm)
4SM
12:35
Overcast
Light Snow
30°F / -1°C 19°F / -7°C 64% 30.42 in
(1030 mb)
N 11.5 mph
(N 19 kph)
0.00 in
(0.00 mm)
7SM
11:52
Overcast
Light Snow
32°F / 0°C 21°F / -6°C 64% 30.42 in
(1030 mb)
N 11.5 mph
(N 19 kph)
0.00 in
(0.00 mm)
10SM
11:38
Overcast
Light Snow
32°F / 0°C 16°F / -9°C 51% 30.42 in
(1030 mb)
NW 13.8 mph
(NW 22 kph)
0.00 in
(0.00 mm)
10SM
11:22
Overcast
32°F / 0°C 18°F / -8°C 55% 30.39 in
(1029 mb)
NW 15 mph
(NW 24 kph)
- 10SM
10:52
Overcast
32°F / 0°C 21°F / -6°C 64% 30.39 in
(1029 mb)
NNW 16.1 mph
(NNW 26 kph)
- 10SM
09:52
Mostly Cloudy
30°F / -1°C 25°F / -4°C 80% 30.39 in
(1029 mb)
NNW 5.8 mph
(NNW 9 kph)
0.00 in
(0.00 mm)
7SM
09:16
Overcast
Light Snow
28°F / -2°C 25°F / -4°C 86% 30.39 in
(1029 mb)
NNW 5.8 mph
(NNW 9 kph)
0.00 in
(0.00 mm)
3SM
08:52
Overcast
Light Snow
28°F / -2°C 23°F / -5°C 80% 30.39 in
(1029 mb)
NNW 8.1 mph
(NNW 13 kph)
0.00 in
(0.00 mm)
3SM
08:30
Overcast
Light Snow
28°F / -2°C 25°F / -4°C 86% 30.36 in
(1028 mb)
N 5.8 mph
(N 9 kph)
0.00 in
(0.00 mm)
3SM
08:05
Overcast
Light Snow
28°F / -2°C 25°F / -4°C 86% 30.36 in
(1028 mb)
NW 4.6 mph
(NW 7 kph)
0.00 in
(0.00 mm)
2SM
07:52
Overcast
Light Snow
28°F / -2°C 25°F / -4°C 86% 30.33 in
(1027 mb)
WNW 3.5 mph
(WNW 6 kph)
0.00 in
(0.00 mm)
4SM
07:48
Overcast
Light Snow
28°F / -2°C 25°F / -4°C 86% 30.33 in
(1027 mb)
W 3.5 mph
(W 6 kph)
0.00 in
(0.00 mm)
4SM
06:52
Overcast
28°F / -2°C 25°F / -4°C 86% 30.3 in
(1026 mb)
Calm - 7SM
05:52
Overcast
27°F / -3°C 23°F / -5°C 86% 30.27 in
(1025 mb)
Calm - 8SM
04:52
Overcast
27°F / -3°C 23°F / -5°C 86% 30.24 in
(1024 mb)
Calm - 9SM
03:52
Overcast
27°F / -3°C 23°F / -5°C 86% 30.21 in
(1023 mb)
Calm - 9SM
02:52
Overcast
25°F / -4°C 21°F / -6°C 86% 30.21 in
(1023 mb)
Calm - 8SM
01:52
Overcast
25°F / -4°C 19°F / -7°C 80% 30.21 in
(1023 mb)
Calm - 8SM
00:52
Overcast
23°F / -5°C 21°F / -6°C 93% 30.18 in
(1022 mb)
Calm - 8SM
Time Weather Temperature Dewpoint Humidity Pressure Winds Precip Visibility


Weather for websites

WeatherForYou.com, LLC is not responsible for any damages or problems caused by this service. Current weather conditions are obtained from the closest station including government and personal stations which may have varying degrees of accuracy. Weather forecasts are derived from the NOAA NDFD. Like all things, this site belongs to Jesus Christ... He just trusts me to maintain it. If you have any questions or comments email webmaster@weatherforyou.com

Copyright © 2015, WeatherForYou.com LLC. All rights reserved.